Regional Weather Roundup
Issued by NWS

Home | Current Version | Previous Version | Graphics & Text | Print | Product List | Glossary On
Versions: 1 2 3 4 5 6 7 8 9 10 11 12 13 14 15 16 17 18 19 20 21 22 23 24 25 26 27 28 29 30 31 32 33 34 35 36 37 38 39 40 41 42 43 44 45 46 47 48 49 50
000
ASUS43 KOAX 242002
RWRNE

WEATHER ROUNDUP FOR NEBRASKA
NATIONAL WEATHER SERVICE OMAHA NE
300 PM CDT FRI OCT 24 2014

NOTES: SATELLITE DATA IS BEING USED TO AUGMENT CLOUD COVER ABOVE
       12000 FEET.
       "FAIR" INDICATES FEW OR NO CLOUDS BELOW 12,000 FEET WITH NO
       SIGNIFICANT WEATHER AND/OR OBSTRUCTIONS TO VISIBILITY.

  * THESE STATIONS DO NOT REPORT WEATHER SUCH AS RAIN...SNOW OR FOG.

NEZ001>004-019>022-054>056-242100-
NEBRASKA PANHANDLE

CITY           SKY/WX    TMP DP  RH WIND       PRES   REMARKS
SCOTTSBLUFF    SUNNY     81  32  17 W21G29    30.03F
ALLIANCE       SUNNY     80  37  21 W9        30.02F
CHADRON        SUNNY     77  35  21 NW10      29.99F
KIMBALL        SUNNY     79  27  14 NW15G22   30.09F
SIDNEY         SUNNY     82  30  15 NW22      30.07F
$$

NEZ057>060-069>072-079>082-242100-
SOUTHWEST NEBRASKA

CITY           SKY/WX    TMP DP  RH WIND       PRES   REMARKS
NORTH PLATTE   SUNNY     83  33  16 W13       29.97F
IMPERIAL       MOSUNNY   84  30  14 W13       30.03F
LEXINGTON      SUNNY     82  39  21 W9        29.96F
MCCOOK         MOSUNNY   84  38  19 SW9       29.99F
OGALLALA       MOSUNNY   84  34  16 W14G21    30.02F
$$

NEZ005>010-023>029-035>040-094-242100-
NORTH CENTRAL NEBRASKA

CITY           SKY/WX    TMP DP  RH WIND       PRES   REMARKS
VALENTINE      MOSUNNY   79  32  18 W7        29.95F
AINSWORTH      MOSUNNY   75  34  22 CALM      29.96S
BROKEN BOW     SUNNY     83  41  22 N7        29.95S
O`NEILL        PTSUNNY   74  33  22 CALM      29.94F
ORD            SUNNY     76  43  30 CALM      29.94S
THEDFORD       SUNNY     82  34  17 N10       29.98S
$$

NEZ041-046>049-061>064-073>077-083>087-242100-
SOUTH CENTRAL NEBRASKA

CITY           SKY/WX    TMP DP  RH WIND       PRES   REMARKS
AURORA         PTSUNNY   74  46  37 W5        29.92F
HASTINGS       MOSUNNY   74  47  38 W6        29.94F
HEBRON         PTSUNNY   76  56  51 W9        29.93S
HOLDREGE       SUNNY     82  33  16 CALM      29.96F
KEARNEY *      SUNNY     81  39  22 W10       29.95F
YORK           MOSUNNY   73  54  49 W5        29.91F
$$

NEZ011>018-030>034-042>045-242100-
NORTHEAST NEBRASKA

CITY           SKY/WX    TMP DP  RH WIND       PRES   REMARKS
NORFOLK        PTSUNNY   72  45  37 CALM      29.92S
ALBION         PTSUNNY   73  39  29 N5        29.93S
BLAIR          CLOUDY    73  57  55 W3        29.90F
COLUMBUS *     MOSUNNY   72  50  46 CALM      29.93F
FREMONT        PTSUNNY   73  53  48 CALM      29.90F
TEKAMAH        PTSUNNY   74  55  51 W5        29.89F
WAYNE          PTSUNNY   75  42  30 CALM      29.91S
$$

NEZ050>053-065>068-078-088>093-242100-
SOUTHEAST NEBRASKA

CITY           SKY/WX    TMP DP  RH WIND       PRES   REMARKS
LINCOLN        PTSUNNY   74  57  55 SW9       29.91F
OMAHA EPPLEY   CLOUDY    73  58  59 VRB6      29.90F
BEATRICE       CLOUDY    76  62  60 SW12      29.91F
FALLS CITY     CLOUDY    77  62  59 SW14      29.91F
NEBRASKA CITY  PTSUNNY   73  57  56 SW7       29.90F
PLATTSMOUTH    PTSUNNY   74  58  58 SW6       29.90F
$$

NEZ044-045-051>053-067-242100-
OMAHA AREA

CITY           SKY/WX    TMP DP  RH WIND       PRES   REMARKS
OMAHA EPPLEY   CLOUDY    73  58  59 VRB6      29.90F
BLAIR          CLOUDY    73  57  55 W3        29.90F
FREMONT        PTSUNNY   73  53  48 CALM      29.90F
MILLARD        PTSUNNY   74  60  61 W3        29.89F
OFFUTT AFB     PTSUNNY   75  62  63 SW6       29.89F
PLATTSMOUTH    PTSUNNY   74  58  58 SW6       29.90F
WAHOO          FAIR      76  52  43 CALM      29.90F
$$



USA.gov is the U.S. government's official web portal to all federal, state and local government web resources and services.